Flag for Austria Weather past 2 weeks in St. Pölten, Lower Austria, Austria

Now
68 °F

Partly sunny.


Feels Like: 68 °F
Forecast: 58 / 85 °F
Wind: 3 mph from North

Location: Tulln Airport

Current Time: Aug 1, 2014 at 12:48:50 PM

Latest Report: Aug 1, 2014 at 11:50 AM


Visibility: 9 mi

Pressure: 29.92 "Hg

Humidity: 88%

Dew point: 64 °F

Location of St. PöltenLocation

Historic Weather in St. Pölten — Graph

°F

St. Pölten temperature yesterday

Maximum temperature yesterday: 75 °F (at 1:50 PM)
Minimum temperature yesterday: 66 °F (at 6:50 AM)
Average temperature yesterday: 69 °F

Past Weeks' High & Low Weather Summary

 TemperatureHumidityPressure
High91 °F (Jul 20, 1:50 PM)100% (Jul 26, 5:50 AM)30.15 "Hg (Jul 26, 5:50 AM)
Low57 °F (Jul 24, 5:50 AM)33% (Jul 18, 2:50 PM)29.68 "Hg (Jul 29, 7:50 PM)
Average74 °F70%29.89 "Hg
* Reported Jul 17 10:50 AM — Aug 1 10:50 AM, St. Pölten, Weather by CustomWeather, © 2014

Note: Actual official high and low records may vary slightly from our data, if they occured in-between our weather recording intervals... More about our weather records

Advertising

St. Pölten weather history for previous 24 hours

 ConditionsComfort  
Time TempWeatherWind HumidityBarometerVisibility
10:50 AM
Aug 1
68 °FBroken clouds.6 mph88%29.95 "Hg7 mi
9:50 AM66 °FBroken clouds.6 mph94%29.95 "Hg6 mi
8:50 AM66 °FBroken clouds.5 mph94%29.92 "Hg5 mi
7:50 AM64 °FDrizzle. Broken clouds.7 mph100%29.92 "Hg4 mi
6:50 AM64 °FFog.6 mph100%29.92 "Hg3 mi
5:50 AM64 °FFog.7 mph94%29.92 "Hg2 mi
10:50 PM
Jul 31
66 °FLight rain. Partly cloudy.6 mph94%29.95 "Hg5 mi
9:50 PM66 °FPartly cloudy.7 mph94%29.92 "Hg5 mi
8:50 PM68 °FBroken clouds.6 mph88%29.92 "Hg9 mi
7:50 PM68 °FPartly sunny.7 mph88%29.92 "Hg12 mi
6:50 PM70 °FPartly sunny.8 mph88%29.89 "Hg12 mi
5:50 PM70 °FBroken clouds.8 mph94%29.89 "Hg9 mi
4:50 PM70 °FLight rain. Broken clouds.6 mph94%29.89 "Hg9 mi
3:50 PM70 °FLight rain. Broken clouds.6 mph94%29.89 "Hg7 mi
2:50 PM70 °FRain. Broken clouds.8 mph94%29.89 "Hg2 mi
1:50 PM75 °FBroken clouds.6 mph74%29.83 "Hg22 mi
12:50 PM73 °FBroken clouds.2 mph74%29.86 "Hg19 mi
Weather by CustomWeather, © 2014

See weather overviewHow to use our weather pages